Hourly Data Report for October 23, 2015

All times are specified in Local Standard Time (LST). Add 1 hour to adjust for Daylight Saving Time where and when it is observed.

KITCHENER/WATERLOO
ONTARIO

43°27'39.000" N
80°22'43.000" W
321.60 m
6144239
71368
YKF

Download Data

Hourly Data (October 2015)
Hourly Data Report for October 23, 2015
Temp Definition
°C
Dew Point Temp Definition
°C
Rel Hum Definition
%
Wind Dir Definition
10's deg

Wind Spd Definition
km/h
Visibility Definition
km
Stn Press Definition
kPa
Hmdx Definition


Wind Chill Definition


Weather Definition


TIME
00:00 Legend Double Dagger 3.5 2.2 91 32 9 16.1 98.77     LegendNANA
01:00 Legend Double Dagger 3.2 2.2 93 35 8 16.1 98.81     LegendNANA
02:00 Legend Double Dagger 2.6 0.6 86 4 8 16.1 98.86     LegendNANA
03:00 Legend Double Dagger 2.0 -1.7 76 3 11 16.1 98.92     LegendNANA
04:00 Legend Double Dagger 1.1 -2.5 77 4 11 16.1 98.94     LegendNANA
05:00 Legend Double Dagger -0.8 -2.2 90 LegendMM 4 16.1 98.94   -2 LegendNANA
06:00 Legend Double Dagger -1.2 -2.0 94 3 8 16.1 98.95   -4 LegendNANA
07:00 Legend Double Dagger -2.6 -3.0 97   0 16.1 98.98     LegendNANA
08:00 Legend Double Dagger 0.8 -1.5 85   0 16.1 99.05     LegendNANA
09:00 Legend Double Dagger 3.4 -0.9 73 5 13 16.1 99.09     LegendNANA
10:00 Legend Double Dagger 4.8 -0.6 68 5 9 16.1 99.05     LegendNANA
11:00 Legend Double Dagger 6.0 -0.7 62 5 5 16.1 98.99     LegendNANA
12:00 Legend Double Dagger 8.3 -0.5 54 7 11 16.1 98.95     LegendNANA
13:00 Legend Double Dagger 9.6 -0.2 50 LegendMM 9 16.1 98.91     LegendNANA
14:00 Legend Double Dagger 10.6 -1.5 43 11 13 16.1 98.85     LegendNANA
15:00 Legend Double Dagger 10.6 -1.2 44 10 17 16.1 98.79     LegendNANA
16:00 Legend Double Dagger 10.0 -0.4 48 11 18 16.1 98.75     LegendNANA
17:00 Legend Double Dagger 6.4 -1.8 56 10 13 16.1 98.71     LegendNANA
18:00 Legend Double Dagger 3.6 -1.3 71 9 13 16.1 98.66     LegendNANA
19:00 Legend Double Dagger 4.3 -0.1 73 9 8 16.1 98.67     LegendNANA
20:00 Legend Double Dagger 3.9 0.4 78 6 5 16.1 98.72     LegendNANA
21:00 Legend Double Dagger 3.8 1.4 84 8 9 16.1 98.63     LegendNANA
22:00 Legend Double Dagger 5.1 2.3 82 10 13 16.1 98.54     LegendNANA
23:00 Legend Double Dagger 6.1 3.3 82 10 17 16.1 98.52     LegendNANA

Notes on Data Quality.

Legend

  • E = Estimated
  • M = Missing
  • NA = Not Available
  • ‡ = Partner data that is not subject to review by the National Climate Archives
Date modified: